[[{"header":{"parameterUnit":"m.s-1","parameterCategory":1,"la1":30.2991,"la2":30.254,"lo1":-89.0895,"lo2":-89.0444,"dy":0.0017,"dx":0.0017,"nx":28,"ny":28,"refTime":"2023-09-28T03:00:00:Z","depth":0,"parameterNumber":2,"parameterNumberName":"U-component_of_WINDS"},"data":[0,0,0,0,0,0,0,0,0,0,0,0,0,0,0,0,0,0,0,0,0,0,0,0,0,0,0,0,0,0,0,0,0,0,0,0,0,0,0,0,0,0,0,0,0,0,0,0,0,0,0,0,0,0,0,0,0,0,-4.0803,-4.0802,0,-4.0726,-4.0725,-4.0725,-4.0589,-4.0586,-4.0584,-4.0581,-4.0505,-4.0505,-4.0506,0,0,0,0,0,0,0,0,0,0,0,0,0,-4.0836,-4.0836,-4.0803,-4.0802,-4.0801,-4.0726,-4.0725,-4.0724,-4.0589,-4.0586,-4.0583,-4.058,-4.0505,-4.0505,-4.0506,0,0,0,0,0,0,0,0,0,0,0,0,0,-4.0797,-4.0836,-4.0803,-4.0725,-4.0717,-4.0727,-4.0725,-4.0724,-4.059,-4.0586,-4.0582,-4.0579,-4.0505,-4.0505,-4.0506,-4.0587,0,0,-4.0508,-4.0508,0,0,0,0,0,0,0,0,-4.0799,-4.0796,-4.0737,-4.073,-4.0721,-4.0663,-4.0709,-4.0678,-4.0591,-4.0638,-4.0581,-4.0577,-4.0561,-4.0557,-4.0551,-4.0583,-4.058,-4.0508,-4.0508,-4.0508,-4.0508,0,0,0,0,0,0,0,-4.0802,-4.0799,-4.0773,-4.0737,-4.0727,-4.0694,-4.0685,-4.0703,-4.0622,-4.0634,-4.0624,-4.0616,-4.0556,-4.0551,-4.0548,-4.0579,-4.0508,-4.0508,-4.0509,-4.0509,-4.0677,-4.0681,0,0,0,0,0,0,-4.0816,-4.0802,-4.0775,-4.077,-4.0752,-4.0697,-4.0686,-4.0686,-4.0622,-4.0608,-4.062,-4.061,-4.0552,-4.0548,-4.0545,-4.0637,-4.0508,-4.0509,-4.0509,-4.0673,-4.0678,-4.0682,0,0,0,0,0,0,-4.0817,-4.0815,-4.0778,-4.0783,-4.0776,-4.0701,-4.0701,-4.0686,-4.0681,-4.0611,-4.0596,-4.0629,-4.0548,-4.0544,-4.0578,-4.0633,-4.0509,-4.051,-4.0668,-4.0674,-4.068,-4.0822,0,0,0,0,0,0,-4.0819,-4.0816,-4.0845,-4.0785,-4.0776,-4.0812,-4.0705,-4.0688,-4.0682,-4.0669,-4.0616,-4.0603,-4.0545,-4.0578,-4.0579,-4.0631,-4.051,-4.0663,-4.0671,-4.0678,-4.0812,-4.0832,-4.085,0,0,0,0,0,-4.0821,-4.0888,-4.0847,-4.0845,-4.0811,-4.0815,-4.081,-4.0741,-4.0687,-4.0716,-4.0672,-4.0605,-4.0627,-4.0582,-4.0582,-4.0636,-4.0659,-4.0669,-4.0678,-4.0804,-4.0828,-4.0849,0,0,0,0,0,0,-4.0957,-4.0879,-4.0833,-4.0882,-4.0857,-4.0792,-4.0827,-4.0769,-4.0758,-4.0747,-4.0662,-4.0651,-4.0697,-4.0669,-4.0622,-4.0712,-4.0632,-4.0642,-4.0729,-4.0751,-4.077,-4.0776,-4.051,0,0,0,0,0,-4.0993,-4.1002,-4.0933,-4.0984,-4.0973,-4.0903,-4.0902,-4.0851,-4.0821,-4.081,-4.0767,-4.0742,-4.0743,-4.0745,-4.0742,-4.0807,-4.0795,-4.0845,-4.0863,-4.0879,-4.0889,-4.0924,-4.0946,-4.0713,-4.0713,-4.0713,0,0,-4.1067,-4.1025,-4.1036,-4.1011,-4.0984,-4.0997,-4.0894,-4.0912,-4.0921,-4.0812,-4.0842,-4.0811,-4.0777,-4.0828,-4.0848,-4.0806,-4.0951,-4.0891,-4.0904,-4.0905,-4.0936,-4.0958,-4.0978,-4.0719,-4.0718,-4.0717,0,0,-4.1209,-4.1178,-4.1218,-4.1194,-4.1156,-4.1109,-4.1119,-4.1064,-4.1039,-4.1067,-4.0987,-4.0997,-4.1,-4.098,-4.097,-4.1108,-4.1047,-4.1109,-4.1208,-4.1243,-4.1261,-4.1277,-4.1329,-4.1348,-4.1119,-4.1119,-4.112,0,-4.1306,-4.1321,-4.1246,-4.1269,-4.1261,-4.1163,-4.1204,-4.1185,-4.1149,-4.1146,-4.11,-4.1103,-4.1073,-4.1119,-4.1153,-4.1148,-4.1158,-4.1115,-4.1265,-4.128,-4.1294,-4.1342,-4.1361,-4.1127,-4.1126,-4.1126,-4.1125,0,-4.1444,-4.1456,-4.1493,-4.1461,-4.1457,-4.1489,-4.142,-4.1425,-4.1376,-4.1334,-4.1366,-4.1327,-4.1316,-4.1322,-4.1274,-4.1363,-4.1338,-4.128,-4.1198,-4.1325,-4.1369,-4.1387,-4.1139,-4.1136,-4.1133,-4.1132,0,0,-4.1669,-4.1596,-4.1611,-4.1596,-4.1548,-4.1556,-4.1585,-4.1574,-4.1581,-4.156,-4.1584,-4.159,-4.1536,-4.1525,-4.1473,-4.1504,-4.1619,-4.1442,-4.144,-4.1478,-4.1718,-4.1764,-4.1786,-4.1578,-4.1581,-4.1584,-4.1721,0,-4.1802,-4.1846,-4.178,-4.184,-4.1852,-4.1761,-4.1786,-4.1761,-4.1724,-4.1729,-4.1688,-4.1695,-4.1622,-4.1615,-4.1641,-4.16,-4.1666,-4.1588,-4.1601,-4.1603,-4.1614,-4.1808,-4.1856,-4.1988,-4.1738,-4.1741,-4.1743,0,-4.1963,-4.195,-4.2012,-4.1962,-4.1965,-4.1989,-4.1974,-4.198,-4.195,-4.1921,-4.1911,-4.185,-4.1877,-4.1797,-4.1835,-4.1783,-4.1785,-4.1766,-4.1769,-4.1769,-4.1682,-4.1815,-4.2027,-4.2048,-4.1768,-4.1766,-4.1765,0,-4.2124,-4.2122,-4.2159,-4.2149,-4.2091,-4.2111,-4.2088,-4.2054,-4.2053,-4.204,-4.2039,-4.2031,-4.2027,-4.2022,-4.1962,-4.1909,-4.2008,-4.1922,-4.1986,-4.1988,-4.2012,-4.2011,-4.223,-4.2011,-4.201,-4.201,-4.201,0,-4.228,-4.2322,-4.2231,-4.2254,-4.2299,-4.2223,-4.227,-4.2238,-4.2209,-4.2226,-4.2146,-4.2164,-4.2082,-4.2092,-4.2044,-4.2084,-4.2082,-4.2061,-4.2049,-4.2069,-4.2072,-4.207,-4.206,-4.2015,-4.2014,-4.2013,-4.2012,0,-4.2468,-4.2408,-4.2443,-4.2386,-4.2373,-4.2409,-4.2361,-4.2381,-4.2339,-4.2362,-4.2363,-4.2298,-4.2305,-4.2244,-4.2239,-4.2208,-4.2271,-4.2241,-4.2281,-4.2273,-4.2341,-4.2336,-4.2566,-4.2594,-4.2356,-4.2358,-4.236,0,-4.2572,-4.2602,-4.2549,-4.2555,-4.2536,-4.2545,-4.2543,-4.2471,-4.2473,-4.2443,-4.2467,-4.2468,-4.2465,-4.2481,-4.2435,-4.2432,-4.2403,-4.2484,-4.2402,-4.2423,-4.2407,-4.2406,-4.241,-4.2501,-4.2504,-4.2507,-4.2508,0,-4.2765,-4.2734,-4.2734,-4.2725,-4.2725,-4.2714,-4.2698,-4.2708,-4.2629,-4.2636,-4.2642,-4.264,-4.2636,-4.2639,-4.2627,-4.2605,-4.2546,-4.2535,-4.255,-4.2572,-4.2595,-4.2586,-4.233,-4.253,-4.2528,-4.2526,-4.2525,-4.2524,-4.2915,-4.2938,-4.2906,-4.2909,-4.289,-4.2877,-4.2894,-4.2855,-4.2859,-4.285,-4.2807,-4.2823,-4.2794,-4.2773,-4.2757,-4.2769,-4.273,-4.2751,-4.2757,-4.2763,-4.2777,-4.2592,-4.2766,-4.2765,-4.2765,-4.2764,-4.2764,0,-4.3105,-4.308,-4.3084,-4.3064,-4.3068,-4.301,-4.299,-4.2998,-4.3012,-4.299,-4.2989,-4.2999,-4.3002,-4.2956,-4.2954,-4.2972,-4.2945,-4.2974,-4.2973,-4.297,-4.281,-4.2799,-4.2997,-4.2997,-4.2997,-4.2997,-4.2997,-4.2997,-4.3204,-4.3242,-4.3208,-4.3237,-4.3211,-4.3225,-4.3219,-4.3208,-4.3191,-4.3205,-4.3207,-4.3177,-4.3146,-4.3142,-4.3143,-4.3129,-4.3133,-4.3173,-4.3151,-4.3003,-4.2981,-4.2959,-4.2948,-4.3174,-4.3174,-4.3309,-4.331,-4.3311]},{"header":{"parameterUnit":"m.s-1","parameterCategory":1,"la1":30.2991,"la2":30.254,"lo1":-89.0895,"lo2":-89.0444,"dy":0.0017,"dx":0.0017,"nx":28,"ny":28,"refTime":"2023-09-28T03:00:00:Z","depth":0,"parameterNumber":3,"parameterNumberName":"V-component_of_WINDS"},"data":[0,0,0,0,0,0,0,0,0,0,0,0,0,0,0,0,0,0,0,0,0,0,0,0,0,0,0,0,0,0,0,0,0,0,0,0,0,0,0,0,0,0,0,0,0,0,0,0,0,0,0,0,0,0,0,0,0,0,-0.2731,-0.2731,0,-0.2789,-0.279,-0.279,-0.2795,-0.2794,-0.2794,-0.2793,-0.2856,-0.2858,-0.2861,0,0,0,0,0,0,0,0,0,0,0,0,0,-0.2625,-0.2627,-0.2731,-0.2731,-0.2732,-0.2789,-0.279,-0.2791,-0.2795,-0.2794,-0.2794,-0.2793,-0.2856,-0.2858,-0.2861,0,0,0,0,0,0,0,0,0,0,0,0,0,-0.2676,-0.2627,-0.273,-0.2741,-0.2743,-0.2789,-0.279,-0.2791,-0.2795,-0.2794,-0.2793,-0.2793,-0.2855,-0.2858,-0.2861,-0.2902,0,0,-0.2872,-0.2873,0,0,0,0,0,0,0,0,-0.2673,-0.268,-0.2739,-0.274,-0.2742,-0.2784,-0.2776,-0.2828,-0.2796,-0.2775,-0.2793,-0.2792,-0.2833,-0.2838,-0.2851,-0.2905,-0.2907,-0.2872,-0.2874,-0.2876,-0.2877,0,0,0,0,0,0,0,-0.2669,-0.2677,-0.2754,-0.274,-0.2742,-0.2744,-0.275,-0.2786,-0.2809,-0.2777,-0.2778,-0.2784,-0.2834,-0.2848,-0.2853,-0.2908,-0.2872,-0.2875,-0.2877,-0.2878,-0.2998,-0.2999,0,0,0,0,0,0,-0.2664,-0.2674,-0.2752,-0.2756,-0.2704,-0.2746,-0.2753,-0.2771,-0.2809,-0.2813,-0.2785,-0.2784,-0.2843,-0.2849,-0.2855,-0.2906,-0.2876,-0.2879,-0.2881,-0.2997,-0.2998,-0.2999,0,0,0,0,0,0,-0.2661,-0.267,-0.275,-0.2715,-0.2725,-0.2749,-0.277,-0.2773,-0.2787,-0.2815,-0.2819,-0.2795,-0.2842,-0.285,-0.289,-0.2908,-0.288,-0.2883,-0.2996,-0.2997,-0.2999,-0.3007,0,0,0,0,0,0,-0.2658,-0.267,-0.2685,-0.2715,-0.2727,-0.2783,-0.2771,-0.2775,-0.2793,-0.2792,-0.2825,-0.283,-0.2842,-0.2885,-0.2893,-0.2912,-0.2886,-0.2994,-0.2996,-0.2998,-0.3005,-0.3009,-0.3012,0,0,0,0,0,-0.2654,-0.2685,-0.2686,-0.2695,-0.2747,-0.2784,-0.2791,-0.2803,-0.2794,-0.281,-0.2828,-0.2829,-0.2904,-0.2889,-0.2899,-0.2919,-0.2993,-0.2996,-0.2998,-0.3004,-0.3008,-0.3012,0,0,0,0,0,0,-0.2658,-0.269,-0.269,-0.2732,-0.2755,-0.2785,-0.2805,-0.2807,-0.2834,-0.2833,-0.2848,-0.2855,-0.2895,-0.291,-0.2893,-0.296,-0.2948,-0.2952,-0.2949,-0.2953,-0.2956,-0.2953,-0.2889,0,0,0,0,0,-0.2663,-0.269,-0.2717,-0.2751,-0.2762,-0.2782,-0.2798,-0.2806,-0.2831,-0.2841,-0.2861,-0.2886,-0.2915,-0.2935,-0.2963,-0.3006,-0.3014,-0.3025,-0.3028,-0.3031,-0.3035,-0.306,-0.3066,-0.3008,-0.3008,-0.3008,0,0,-0.2676,-0.2696,-0.2712,-0.2752,-0.2771,-0.2799,-0.279,-0.282,-0.2842,-0.2846,-0.2885,-0.29,-0.2929,-0.2971,-0.299,-0.2985,-0.3053,-0.3034,-0.3036,-0.3039,-0.3063,-0.3069,-0.3074,-0.3009,-0.3009,-0.3009,0,0,-0.2712,-0.273,-0.2761,-0.2779,-0.2807,-0.2819,-0.2827,-0.2855,-0.2866,-0.2904,-0.2908,-0.2933,-0.2983,-0.3004,-0.3021,-0.3063,-0.3066,-0.3072,-0.309,-0.3114,-0.3119,-0.3123,-0.314,-0.3145,-0.3076,-0.3076,-0.3076,0,-0.2725,-0.2767,-0.2777,-0.2807,-0.2825,-0.2827,-0.2859,-0.2877,-0.2913,-0.2926,-0.2918,-0.2981,-0.3,-0.3047,-0.3057,-0.307,-0.308,-0.307,-0.3117,-0.3121,-0.3125,-0.3142,-0.3148,-0.3077,-0.3077,-0.3077,-0.3076,0,-0.2781,-0.281,-0.2831,-0.2865,-0.2885,-0.2916,-0.2931,-0.295,-0.2954,-0.2968,-0.3007,-0.303,-0.3063,-0.3074,-0.308,-0.3122,-0.3118,-0.3114,-0.3102,-0.3132,-0.3147,-0.3153,-0.3078,-0.3077,-0.3077,-0.3077,0,0,-0.2825,-0.2862,-0.287,-0.2885,-0.2915,-0.2938,-0.2969,-0.3,-0.3017,-0.3041,-0.3068,-0.3109,-0.3105,-0.3124,-0.3131,-0.3152,-0.3186,-0.3145,-0.3146,-0.3154,-0.3235,-0.324,-0.3247,-0.3186,-0.3187,-0.3188,-0.3234,0,-0.2867,-0.2921,-0.293,-0.2978,-0.3006,-0.3007,-0.3034,-0.3056,-0.3068,-0.3094,-0.3108,-0.3137,-0.3129,-0.314,-0.3161,-0.3177,-0.3203,-0.3174,-0.3214,-0.3215,-0.3209,-0.3255,-0.3261,-0.3303,-0.324,-0.3241,-0.3241,0,-0.2924,-0.2948,-0.2999,-0.3025,-0.3037,-0.3061,-0.309,-0.3113,-0.3138,-0.3146,-0.3166,-0.3171,-0.3203,-0.3188,-0.3234,-0.3214,-0.323,-0.324,-0.3242,-0.3249,-0.3232,-0.3265,-0.3316,-0.3323,-0.3251,-0.325,-0.3249,0,-0.2953,-0.2999,-0.3035,-0.3048,-0.3078,-0.3095,-0.3109,-0.3132,-0.315,-0.3175,-0.3187,-0.3216,-0.3233,-0.3255,-0.3268,-0.3255,-0.3313,-0.3299,-0.3322,-0.3322,-0.3337,-0.3337,-0.3394,-0.3343,-0.3343,-0.3343,-0.3343,0,-0.3001,-0.3032,-0.3049,-0.3071,-0.3106,-0.3116,-0.3151,-0.3164,-0.3184,-0.321,-0.3212,-0.3237,-0.3251,-0.3277,-0.3287,-0.3324,-0.3331,-0.3339,-0.3342,-0.3341,-0.334,-0.3354,-0.3352,-0.3344,-0.3344,-0.3344,-0.3343,0,-0.3042,-0.3053,-0.3093,-0.3118,-0.3125,-0.315,-0.3171,-0.3194,-0.3205,-0.3237,-0.3246,-0.3264,-0.3295,-0.3308,-0.3347,-0.3353,-0.3397,-0.3396,-0.3389,-0.339,-0.3414,-0.3412,-0.3484,-0.3495,-0.3434,-0.3435,-0.3435,0,-0.3073,-0.3097,-0.3123,-0.314,-0.3154,-0.3181,-0.3199,-0.3209,-0.3227,-0.3256,-0.3275,-0.3306,-0.3331,-0.3381,-0.3398,-0.3428,-0.3429,-0.3452,-0.3434,-0.3432,-0.3433,-0.3432,-0.3435,-0.3457,-0.3457,-0.3458,-0.3458,0,-0.3127,-0.3131,-0.3157,-0.3184,-0.3205,-0.3227,-0.3249,-0.3263,-0.3275,-0.3296,-0.3328,-0.3347,-0.3385,-0.3417,-0.3447,-0.3461,-0.3463,-0.3463,-0.3471,-0.3471,-0.3467,-0.3472,-0.3401,-0.3462,-0.3462,-0.3462,-0.3462,-0.3461,-0.3166,-0.3187,-0.3209,-0.3238,-0.3254,-0.3274,-0.3296,-0.3309,-0.3335,-0.3367,-0.337,-0.3404,-0.3427,-0.3467,-0.3483,-0.351,-0.3505,-0.3515,-0.3518,-0.3521,-0.3524,-0.3459,-0.3515,-0.3515,-0.3515,-0.3515,-0.3515,0,-0.3223,-0.3236,-0.3262,-0.3291,-0.3313,-0.331,-0.3333,-0.3352,-0.3382,-0.3402,-0.3427,-0.3462,-0.3492,-0.351,-0.354,-0.3559,-0.356,-0.3566,-0.3567,-0.3571,-0.3526,-0.3518,-0.3565,-0.3565,-0.3565,-0.3565,-0.3565,-0.3565,-0.3255,-0.3292,-0.3298,-0.3343,-0.3357,-0.3389,-0.3403,-0.3421,-0.3438,-0.3477,-0.3502,-0.3513,-0.3533,-0.3564,-0.3591,-0.3596,-0.3608,-0.3615,-0.362,-0.3579,-0.3573,-0.3569,-0.3561,-0.3617,-0.3617,-0.3662,-0.3663,-0.3663]}]]